Location: Oshawa
(43.9000°N, 78.8670°W)
Time: 22:05:36
(UTC-04:00)

Iridium 54 - Visible Passes

Search period start: 30 May 2016 00:00
Search period end: 09 June 2016 00:00
Orbit: 776 x 779 km, 86.4° (Epoch: 30 May)

Date Brightness Start Highest point End Pass type
(mag) Time Alt. Az. Time Alt. Az. Time Alt. Az.
30 May 9.1 04:42:33 10° ENE 04:43:04 10° ENE 04:43:36 10° ENE visible
02 Jun 8.5 04:40:33 10° NE 04:43:27 15° ENE 04:46:21 10° ESE visible
05 Jun 8.2 04:39:53 10° NNE 04:43:47 21° ENE 04:47:40 10° ESE visible
06 Jun 8.6 04:08:03 10° NE 04:09:51 12° ENE 04:11:40 10° E visible
08 Jun 7.6 04:39:32 10° NNE 04:44:04 29° ENE 04:48:34 10° SE visible
